Hourly Data Report for November 30, 2019

QUALICUM BEACH AIRPORT
BRITISH COLUMBIA
Current Station Operator: ECCC - MSC

49°20'14.000" N
124°23'38.000" W
58.20 m
1026562
71766
VOQ

Download Data

Hourly Data (November 2019)
Hourly Data Report for November 30, 2019
TIME
LST
Temp Definition
°C
Dew Point Definition
°C
Rel Hum Definition
%
Precip. Amount Definition
mm

Wind Dir Definition
10's deg

Wind Spd Definition
km/h
Visibility Definition
km
Stn Press Definition
kPa
Hmdx Definition


Wind Chill Definition


Weather Definition


00:00 -5.4 -6.1 95 LegendMM 0 1   100.83   -6 LegendNANA
01:00 -5.1 -5.8 95 LegendMM 0 1   100.88   -6 LegendNANA
02:00 -6.1 -6.8 95 LegendMM 0 1   100.96   -7 LegendNANA
03:00 -6.1 -6.8 95 LegendMM   0   101.03     LegendNANA
04:00 -6.5 -7.2 95 LegendMM 0 1   101.08   -7 LegendNANA
05:00 -5.6 -6.3 94 LegendMM   0   101.11     LegendNANA
06:00 -5.8 -6.6 95 LegendMM 25 2   101.14   -7 LegendNANA
07:00 -5.7 -6.4 94 LegendMM 27 2   101.20   -7 LegendNANA
08:00 -5.8 -6.6 94 LegendMM 25 1   101.25   -6 LegendNANA
09:00 -4.3 -5.6 91 LegendMM 27 2   101.27   -5 LegendNANA
10:00 -1.4 -4.3 80 LegendMM 0 1   101.27   -2 LegendNANA
11:00 2.8 -1.5 73 LegendMM 15 3   101.32     LegendNANA
12:00 3.9 -0.8 71 LegendMM 9 6   101.28     LegendNANA
13:00 3.8 -1.2 70 LegendMM 10 6   101.25     LegendNANA
14:00 4.8 -1.0 66 LegendMM 6 4   101.23     LegendNANA
15:00 3.7 -2.0 66 LegendMM 8 4   101.22     LegendNANA
16:00 2.9 -2.2 69 LegendMM 8 2   101.18     LegendNANA
17:00 0.3 -2.2 83 LegendMM 25 2   101.16     LegendNANA
18:00 -1.2 -2.3 92 LegendMM 24 3   101.14   -2 LegendNANA
19:00 -2.0 -2.8 94 LegendMM 27 4   101.11   -3 LegendNANA
20:00 -2.4 -3.1 95 LegendMM 24 4   101.05   -4 LegendNANA
21:00 -2.7 -3.2 96 LegendMM 24 5   100.99   -5 LegendNANA
22:00 -2.9 -3.4 97 LegendMM 25 5   100.93   -5 LegendNANA
23:00 -3.1 -3.5 97 LegendMM 25 5   100.90   -5 LegendNANA

Notes on Data Quality.

Legend

  • E = Estimated
  • M = Missing
  • NA = Not Available*
  • [empty] = Indicates an unobserved value
Date modified: